Flag Weather past 2 weeks in Tulkarm, West Bank

Now
61 °F

Passing clouds.


Feels Like: 61 °F
Forecast: 55 / 67 °F
Wind: 6 mph from Southeast

Location: Ben Gurion International Airport

Current Time: Nov 23, 2014 at 4:25:44 AM

Latest Report: Nov 23, 2014 at 3:50 AM


Visibility: N/A

Pressure: 30.01 "Hg

Humidity: 68%

Dew point: 50 °F

Location of TulkarmLocation

Historic Weather in Tulkarm — Graph

°F

Tulkarm temperature yesterday

Maximum temperature yesterday: 72 °F (at 9:20 AM)
Minimum temperature yesterday: 64 °F (at 8:50 PM)
Average temperature yesterday: 67 °F

Past Weeks' High & Low Weather Summary

 TemperatureHumidityPressure
High86 °F (Nov 9, 11:20 AM)94% (Nov 16, 5:50 AM)30.18 "Hg (Nov 16, 5:50 AM)
Low54 °F (Nov 19, 6:20 AM)11% (Nov 8, 9:50 AM)29.86 "Hg (Nov 14, 1:20 PM)
Average68 °F63%30.00 "Hg
* Reported Nov 8 3:20 AM — Nov 23 3:20 AM, Tulkarm, Weather by CustomWeather, © 2014

Note: Actual official high and low records may vary slightly from our data, if they occured in-between our weather recording intervals... More about our weather records

Advertising

Tulkarm weather history for previous 24 hours

 ConditionsComfort  
Time TempWeatherWind HumidityBarometerVisibility
3:20 AM
Nov 23
61 °FPassing clouds.8 mph63%30.01 "HgN/A
2:50 AM61 °FPassing clouds.7 mph68%30.01 "HgN/A
2:20 AM61 °FLight rain. Passing clouds.7 mph68%30.01 "HgN/A
1:50 AM63 °FPassing clouds.5 mph59%30.01 "HgN/A
1:20 AM63 °FPassing clouds.3 mph59%30.01 "HgN/A
12:50 AM63 °FPassing clouds.5 mph59%30.01 "HgN/A
12:20 AM64 °FPassing clouds.7 mph56%30.01 "HgN/A
11:50 PM
Nov 22
64 °FPassing clouds.9 mph56%30.01 "HgN/A
11:20 PM64 °FPassing clouds.10 mph56%30.01 "HgN/A
10:50 PM64 °FPassing clouds.10 mph60%30.01 "HgN/A
10:20 PM64 °FPassing clouds.9 mph60%30.01 "HgN/A
9:50 PM64 °FPassing clouds.7 mph56%30.01 "HgN/A
9:20 PM64 °FPassing clouds.9 mph56%30.01 "HgN/A
8:50 PM64 °FPassing clouds.14 mph52%30.01 "HgN/A
8:20 PM66 °FPassing clouds.16 mph49%30.01 "HgN/A
7:50 PM66 °FPassing clouds.16 mph52%30.01 "HgN/A
7:20 PM66 °FPassing clouds.16 mph46%30.01 "HgN/A
6:50 PM66 °FPassing clouds.17 mph56%30.01 "HgN/A
6:20 PM66 °FPassing clouds.16 mph56%30.01 "HgN/A
5:50 PM66 °FPassing clouds.16 mph56%29.98 "HgN/A
5:20 PM66 °FPassing clouds.17 mph60%29.98 "HgN/A
4:50 PM66 °FPassing clouds.18 mph60%29.98 "HgN/A
4:20 PM68 °FPartly sunny.18 mph56%29.98 "HgN/A
3:50 PM68 °FPartly sunny.14 mph64%29.98 "HgN/A
3:20 PM66 °FBroken clouds.21 mph68%29.98 "HgN/A
2:50 PM70 °FScattered clouds.24 mph57%29.98 "HgN/A
2:20 PM72 °FPassing clouds.21 mph47%29.95 "HgN/A
1:50 PM72 °FPassing clouds.22 mph47%29.95 "HgN/A
1:20 PM72 °FScattered clouds.21 mph47%29.95 "HgN/A
12:50 PM72 °FScattered clouds.25 mph41%29.98 "HgN/A
12:20 PM72 °FPassing clouds.25 mph44%29.98 "HgN/A
11:50 AM72 °FPassing clouds.24 mph44%29.98 "HgN/A
11:20 AM72 °FScattered clouds.21 mph44%29.98 "HgN/A
10:50 AM72 °FPassing clouds.22 mph47%29.98 "HgN/A
10:20 AM72 °FScattered clouds.18 mph44%29.98 "HgN/A
9:50 AM70 °FScattered clouds.22 mph50%30.01 "HgN/A
9:20 AM72 °FScattered clouds.17 mph53%29.98 "HgN/A
8:50 AM70 °FScattered clouds.17 mph53%29.98 "HgN/A
8:20 AM68 °FScattered clouds.15 mph53%29.98 "HgN/A
7:50 AM68 °FScattered clouds.13 mph53%29.98 "HgN/A
7:20 AM68 °FPassing clouds.13 mph53%29.98 "HgN/A
6:50 AM66 °FScattered clouds.13 mph56%29.98 "HgN/A
6:20 AM66 °FPartly sunny.15 mph60%29.98 "HgN/A
5:50 AM66 °FPassing clouds.10 mph56%29.95 "HgN/A
5:20 AM66 °FPassing clouds.10 mph56%29.95 "HgN/A
4:50 AM66 °FPassing clouds.9 mph56%29.95 "HgN/A
4:20 AM66 °FPassing clouds.14 mph60%29.95 "HgN/A
Weather by CustomWeather, © 2014

See weather overviewHow to use our weather pages